Location: Litvinovka
(48.6667°N, 34.3500°E)
Time: 11:18:40
(UTC+00:00)

NOSS 3-2 (A) - Pass Details

Date: 18 September 2020
Orbit: 795 x 1413 km, 63.4° (Epoch: 02 October)

Event Time Altitude Azimuth Distance (km) Brightness Sun altitude
Rises 18:12:37 0° 317° (NW) 3,964 8.0 -23.4°
Reaches altitude 10° 18:15:12 10° 314° (NW) 3,085 7.2 -23.7°
Maximum altitude 18:22:34 60° 237° (WSW) 1,446 4.4 -24.7°
Enters shadow 18:26:32 32° 171° (S) 2,113 4.8 -25.3°
